LA3SP-12 Weather Reports


time (UTC)temp
C
wind
direction
speed
KPH
gust
KPH
rain 1hr
cm
rain 24hr
cm
rain mn
cm
humidity
%
barometer
mb
20260507113605 13 59 3.2 8.0 0.00 0.00 0.00 31 1016.0
20260507112915 13 102 3.2 4.8 0.00 0.00 0.00 31 1015.9
20260507112013 14 34 4.8 6.4 0.00 0.00 0.00 32 1016.0
20260507110903 13 48 8.0 8.0 0.00 0.00 0.00 33 1016.2
20260507110003 12 16 1.6 6.4 0.00 0.00 0.00 34 1016.1
20260507105403 11 5 4.8 6.4 0.00 0.00 0.00 37 1016.1
20260507104716 11 328 6.4 9.7 0.00 0.00 0.00 35 1016.1
20260507103814 10 348 6.4 9.7 0.00 0.00 0.00 42 1016.0
20260507102703 6 295 9.7 19.3 0.00 0.00 0.00 43 1016.2
20260507102013 5 220 3.2 8.0 0.00 0.00 0.00 46 1016.2
20260507101116 5 204 8.0 11.3 0.00 0.00 0.00 43 1015.9
20260507100213 6 250 3.2 9.7 0.00 0.00 0.00 44 1015.7
20260507095403 5 208 9.7 9.7 0.00 0.00 0.00 46 1015.6
20260507094717 5 220 6.4 8.0 0.00 0.00 0.00 45 1015.4
20260507093603 5 227 8.0 8.0 0.00 0.00 0.00 44 1015.3
20260507092703 6 236 3.2 9.7 0.00 0.00 0.00 43 1015.2
20260507092014 6 230 8.0 8.0 0.00 0.00 0.00 43 1015.1
20260507091116 6 253 3.2 12.9 0.00 0.00 0.00 42 1014.9
20260507090004 6 204 8.0 11.3 0.00 0.00 0.00 42 1014.8
20260507085615 6 232 9.7 11.3 0.00 0.00 0.00 41 1014.7
20260507084503 8 347 6.4 6.4 0.00 0.00 0.00 40 1014.5
20260507083605 7 316 1.6 4.8 0.00 0.00 0.00 44 1014.4
20260507082703 6 330 1.6 6.4 0.00 0.00 0.00 44 1014.3
20260507082015 6 354 4.8 4.8 0.00 0.00 0.00 47 1014.2
20260507081117 5 298 1.6 8.0 0.00 0.00 0.00 49 1014.0
20260507080003 3 150 1.6 3.2 0.00 0.00 0.00 49 1013.8
20260507075616 3 186 3.2 8.0 0.00 0.00 0.00 49 1013.7
20260507074713 3 242 1.6 8.0 0.00 0.00 0.00 48 1014.0
20260507073603 3 250 6.4 6.4 0.00 0.00 0.00 48 1014.3
20260507072913 4 244 4.8 4.8 0.00 0.00 0.00 48 1014.3
20260507071803 4 263 0.0 9.7 0.00 0.00 0.00 49 1014.4
20260507071112 4 269 3.2 9.7 0.00 0.00 0.00 48 1014.4
20260507070215 3 253 0.0 6.4 0.00 0.00 0.00 51 1014.4
20260507065405 5 123 3.2 3.2 0.00 0.00 0.00 52 1014.5
20260507064504 3 225 0.0 1.6 0.00 0.00 0.00 54 1014.5
20260507063816 3 225 1.6 1.6 0.00 0.00 0.00 55 1014.5
20260507062703 3 135 1.6 1.6 0.00 0.00 0.00 59 1014.5
20260507061803 2 0 0.0 0.0 0.00 0.00 0.00 61 1014.3
20260507061113 1 0 0.0 0.0 0.00 0.00 0.00 62 1014.4
20260507060003 1 0 0.0 0.0 0.00 0.00 0.00 65 1014.4
20260507055403 0 120 0.0 1.6 0.00 0.00 0.00 66 1014.2
20260507054714 0 121 0.0 1.6 0.00 0.00 0.00 68 1014.2
20260507053817 0 112 0.0 1.6 0.00 0.00 0.00 69 1014.3
20260507052703 -1 112 0.0 1.6 0.00 0.00 0.00 73 1014.2
20260507052016 -2 112 0.0 1.6 0.00 0.00 0.00 74 1014.2
20260507050903 -3 0 0.0 0.0 0.00 0.00 0.00 76 1014.2
20260507050216 -4 0 0.0 0.0 0.00 0.00 0.00 76 1014.1
20260507045618 -5 0 0.0 0.0 0.00 0.00 0.00 76 1014.0
20260507044503 -5 0 0.0 0.0 0.00 0.00 0.00 76 1014.0
20260507043603 -5 0 0.0 0.0 0.00 0.00 0.00 76 1014.0
20260507042703 -5 0 0.0 0.0 0.00 0.00 0.00 76 1014.0
20260507041803 -5 225 0.0 3.2 0.00 0.00 0.00 76 1013.9
20260507041114 -5 39 0.0 3.2 0.00 0.00 0.00 76 1013.9
20260507040217 -5 43 3.2 3.2 0.00 0.00 0.00 76 1014.0
20260507035613 -5 25 1.6 3.2 0.00 0.00 0.00 76 1013.9
20260507034503 -5 322 0.0 1.6 0.00 0.00 0.00 77 1013.7
20260507033813 -6 67 0.0 1.6 0.00 0.00 0.00 75 1013.7
20260507032703 -6 0 0.0 0.0 0.00 0.00 0.00 74 1013.8
20260507032013 -5 0 0.0 0.0 0.00 0.00 0.00 74 1013.8
20260507030903 -5 0 0.0 0.0 0.00 0.00 0.00 74 1013.6
20260507030003 -5 135 0.0 3.2 0.00 0.00 0.00 73 1013.6
20260507025403 -5 135 0.0 3.2 0.00 0.00 0.00 73 1013.6
20260507024503 -5 67 0.0 3.2 0.00 0.00 0.00 73 1013.3
20260507023604 -5 67 3.2 3.2 0.00 0.00 0.00 73 1013.3
20260507022916 -5 135 0.0 3.2 0.00 0.00 0.00 73 1013.2
20260507021803 -5 37 0.0 3.2 0.00 0.00 0.00 73 1013.1
20260507021116 -5 31 3.2 3.2 0.00 0.00 0.00 72 1013.0
20260507020218 -5 0 0.0 0.0 0.00 0.00 0.00 71 1013.1
20260507015615 -5 0 0.0 0.0 0.00 0.00 0.00 71 1012.9
20260507014717 -5 0 0.0 0.0 0.00 0.00 0.00 71 1013.0
20260507013603 -4 0 0.0 0.0 0.00 0.00 0.00 69 1012.8
20260507012703 -4 0 0.0 0.0 0.00 0.00 0.00 69 1012.8
20260507012014 -4 270 0.0 1.6 0.00 0.00 0.00 68 1012.6
20260507010003 -3 0 0.0 0.0 0.00 0.00 0.00 68 1012.4
20260507005615 -3 0 0.0 0.0 0.00 0.00 0.00 68 1012.4
20260507004503 -3 247 0.0 3.2 0.00 0.00 0.00 68 1012.3
20260507003603 -3 292 0.0 3.2 0.00 0.00 0.00 68 1012.2
20260507002912 -2 279 3.2 4.8 0.00 0.00 0.00 68 1012.3
20260507002015 -3 289 4.8 6.4 0.00 0.00 0.00 69 1012.3
20260507001117 -2 288 3.2 3.2 0.00 0.00 0.00 68 1012.4
20260507000003 -3 37 1.6 3.2 0.00 0.00 0.00 68 1012.4
20260506235403 -3 38 0.0 4.8 0.00 0.00 0.00 68 1012.5
20260506234503 -3 22 0.0 4.8 0.00 0.00 0.00 67 1012.4
20260506233603 -3 0 0.0 0.0 0.00 0.00 0.00 66 1012.5
20260506232705 -3 0 0.0 0.0 0.00 0.00 0.00 66 1012.5
20260506232015 -3 0 0.0 0.0 0.00 0.00 0.00 65 1012.6
20260506230903 -2 0 0.0 0.0 0.00 0.00 0.00 65 1012.6
20260506230003 -2 0 0.0 0.0 0.00 0.00 0.00 64 1012.6
20260506225403 -2 0 0.0 0.0 0.00 0.00 0.00 64 1012.6
20260506224714 -2 0 0.0 0.0 0.00 0.00 0.00 64 1012.7
20260506223816 -2 32 0.0 3.2 0.00 0.00 0.00 63 1012.8
20260506222913 -1 292 3.2 3.2 0.00 0.00 0.00 63 1012.8
20260506222016 -1 288 3.2 14.5 0.00 0.00 0.00 63 1012.9
20260506220904 -1 281 4.8 8.0 0.00 0.00 0.00 63 1012.9
20260506220215 -1 319 4.8 8.0 0.00 0.00 0.00 64 1013.0
20260506215617 -1 327 3.2 4.8 0.00 0.00 0.00 63 1013.0
20260506214714 -1 25 3.2 3.2 0.00 0.00 0.00 63 1013.1
20260506213605 -1 293 0.0 9.7 0.00 0.00 0.00 63 1013.1
20260506212703 -1 296 9.7 12.9 0.00 0.00 0.00 63 1013.2
20260506212016 -1 287 4.8 6.4 0.00 0.00 0.00 64 1013.2
20260506210903 -2 337 1.6 3.2 0.00 0.00 0.00 63 1013.1
20260506210216 -2 315 0.0 1.6 0.00 0.00 0.00 62 1012.9
20260506205403 -2 135 0.0 3.2 0.00 0.00 0.00 60 1013.1
20260506204503 -1 135 0.0 3.2 0.00 0.00 0.00 60 1013.0
20260506203603 -1 202 0.0 1.6 0.00 0.00 0.00 59 1012.9
20260506202915 -1 0 0.0 0.0 0.00 0.00 0.00 59 1012.9
20260506201803 -1 349 1.6 3.2 0.00 0.00 0.00 59 1012.9
20260506201114 0 349 1.6 3.2 0.00 0.00 0.00 59 1012.9
20260506200003 0 315 3.2 4.8 0.00 0.00 0.00 58 1012.8
20260506195613 0 323 3.2 4.8 0.00 0.00 0.00 58 1012.8
20260506194716 0 311 3.2 9.7 0.00 0.00 0.00 58 1012.5
20260506193813 0 314 6.4 11.3 0.00 0.00 0.00 57 1012.4
20260506192703 0 343 4.8 6.4 0.00 0.00 0.00 56 1012.5
20260506191803 0 19 3.2 19.3 0.00 0.00 0.00 56 1012.4
20260506191115 0 360 0.0 19.3 0.00 0.00 0.00 56 1012.2
20260506190212 0 347 8.0 8.0 0.00 0.00 0.00 56 1012.2
20260506185614 1 334 8.0 8.0 0.00 0.00 0.00 56 1012.1
20260506184716 1 5 3.2 9.7 0.00 0.00 0.00 55 1012.1
20260506183604 1 334 1.6 4.8 0.00 0.00 0.00 54 1012.0
20260506182916 1 327 1.6 6.4 0.00 0.00 0.00 54 1011.9
20260506182013 1 279 3.2 4.8 0.00 0.00 0.00 53 1011.7
20260506180903 1 290 0.0 12.9 0.00 0.00 0.00 50 1011.6
20260506180213 2 279 6.4 12.9 0.00 0.00 0.00 50 1011.6
20260506175615 2 265 8.0 11.3 0.00 0.00 0.00 50 1011.5
20260506174717 2 287 4.8 12.9 0.00 0.00 0.00 49 1011.5
20260506173604 3 308 9.7 9.7 0.00 0.00 0.00 47 1011.5
20260506172703 3 299 4.8 17.7 0.00 0.00 0.00 47 1011.4
20260506171803 3 294 4.8 19.3 0.00 0.00 0.00 47 1011.4
20260506171116 2 297 9.7 22.5 0.00 0.00 0.00 48 1011.3
20260506170004 2 317 3.2 9.7 0.00 0.00 0.00 49 1011.3
20260506165615 2 284 9.7 9.7 0.00 0.00 0.00 50 1011.3
20260506164712 3 301 9.7 17.7 0.00 0.00 0.00 47 1011.2
20260506163603 4 276 16.1 16.1 0.00 0.00 0.00 45 1011.4
20260506162703 3 271 6.4 14.5 0.00 0.00 0.00 45 1011.4
20260506162015 4 282 8.0 20.9 0.00 0.00 0.00 46 1011.4
20260506160903 5 309 12.9 20.9 0.00 0.00 0.00 43 1011.4
20260506160214 6 333 8.0 8.0 0.00 0.00 0.00 43 1011.5
20260506155616 6 305 4.8 9.7 0.00 0.00 0.00 43 1011.5
20260506154713 6 356 3.2 12.9 0.00 0.00 0.00 43 1011.5
20260506153603 5 276 4.8 20.9 0.00 0.00 0.00 45 1011.4
20260506152703 5 282 20.9 20.9 0.00 0.00 0.00 45 1011.4
20260506151803 5 296 4.8 19.3 0.00 0.00 0.00 45 1011.3
20260506151113 5 299 6.4 22.5 0.00 0.00 0.00 44 1011.2
20260506150215 6 322 8.0 9.7 0.00 0.00 0.00 41 1011.2
20260506145403 5 293 6.4 16.1 0.00 0.00 0.00 42 1011.0
20260506144714 5 288 3.2 12.9 0.00 0.00 0.00 39 1011.1
20260506143605 6 298 0.0 16.1 0.00 0.00 0.00 39 1011.1
20260506142913 6 282 9.7 17.7 0.00 0.00 0.00 40 1011.2
20260506142016 5 307 16.1 17.7 0.00 0.00 0.00 39 1011.2
20260506140903 5 269 4.8 20.9 0.00 0.00 0.00 38 1011.2
20260506140215 5 273 20.9 20.9 0.00 0.00 0.00 37 1011.3
20260506135405 5 300 14.5 20.9 0.00 0.00 0.00 37 1011.1
20260506134714 5 283 4.8 20.9 0.00 0.00 0.00 39 1011.2
20260506133603 5 294 11.3 22.5 0.00 0.00 0.00 42 1011.2
20260506132914 4 301 3.2 22.5 0.00 0.00 0.00 41 1011.1
20260506132016 6 280 6.4 17.7 0.00 0.00 0.00 39 1011.1
20260506130903 6 274 12.9 20.9 0.00 0.00 0.00 40 1011.3
20260506130216 7 295 11.3 19.3 0.00 0.00 0.00 36 1011.3
20260506125613 8 313 3.2 12.9 0.00 0.00 0.00 35 1011.3
20260506124715 7 281 1.6 20.9 0.00 0.00 0.00 39 1011.2
20260506123603 6 273 9.7 14.5 0.00 0.00 0.00 41 1011.3
20260506122915 6 271 8.0 14.5 0.00 0.00 0.00 43 1011.4
20260506122017 6 261 14.5 14.5 0.00 0.00 0.00 42 1011.4
20260506120903 5 277 11.3 11.3 0.00 0.00 0.00 41 1011.3
20260506120217 5 275 8.0 14.5 0.00 0.00 0.00 42 1011.2
20260506115403 6 292 14.5 20.9 0.00 0.00 0.00 38 1011.2
20260506114503 6 293 11.3 17.7 0.00 0.00 0.00 40 1011.2